BREEZE-M DEB (TANK), 38344

Orbit data source: Space-Track

BREEZE-M DEB (TANK), 38344 is space debris in HEO originally from a launch on Thu, 17 May 2012 UTC launched from the Tyuratam Missile And Space Complex (TTMTR). Debris objects in space refer to the collection of defunct objects orbiting the Earth. Examples of debris include non-operational satellites, rocket bodies, and fragments generated from explosions, collisions, or faulty payload assembly.

Loading next visibility...
Identifier
38344, 2012-026C
Orbit
HEO
Country
Flag of CISCIS
Related business
Manufacturer
Khrunichev
Mission
Spacecraft
Bus & Motor
BRIZ TANK, Unknown motor
Mass
~1,000 kg wet, 1,000 kg dry
Launch date (UTC)
2012-05-17 (14 years ago)
Launch vehicle
Unknown
Launch site
Tyuratam Missile And Space Complex (TTMTR)
Object type
Payload
Rocket body
Debris
Shape & HBR
Torus, 1.3 m
Radar Cross Section
5.040 m², Large (>1 m²)

Expand to show TLE details & history
Last TLE update: 16 hours ago

TLE from 16 hours ago
0 BREEZE-M DEB (TANK)
1 38344U 12026C   25354.30671544  .00009854  00000-0  13763-2 0  9990
2 38344  49.3606  37.5412 6200312 181.3262 175.6483  3.76312845174848
Epoch: 2025-12-20T07:21Z
TLE epoch observation values (Epoch: 2025-12-20T07:21:40.214Z)
Latitude
0.00003°
Longitude
-162.00265°
Altitude
21,890.554 km
Speed
2.318 km/s
True Right ascension
02h 30m 12s
True Declination
0° 00' 00"
Sunlit
Object was in daylight at epoch
Visualization orbit readout
Latitude
Unknown
Longitude
Unknown
Altitude
Unknown
Speed
Unknown
Apparent Right ascension
Unknown
Apparent Declination
Unknown
Sunlit
N/A
Visualization observer readout
Local Sidereal Time
22:17:59
Azimuth
Unknown
Elevation
Unknown
Doppler factor
Unknown
Orbital elements
Apogee altitude
21,908.229 km
Perigee altitude
256.264 km
Semi-major axis
17,460.384 km
Eccentricity
0.62003
Inclination
49.3606°
RAAN
37.5412°
Arg. of periapsis
181.3262°
True anomaly
178.69872°
Mean anomaly
175.6483°
Eccentric anomaly
177.31344°
Mean motion
0.94072 °/min
Orbital period
382.68 mins
BSTAR
0.0013763
Loading maneuver chart data...
Computing Atmospheric mass density...
Loading historical data...
Loading historical data...
Loading historical data...
Loading historical data...
Loading historical data...
Loading historical data...
Loading historical data...

Documentation

Showing up to 5 results
|